FLOCK 2K-25

Last updated on Wed Feb 14 2018 16:20:53 GMT+0000 (Coordinated Universal Time)

1 42884U 17042BM 18044.90790583 .00006765 00000-0 19681-3 0 9990 2 42884 96.9929 307.7706 0012111 179.1560 180.9708 15.35663428 32716
UTC large
Height (km)
Speed (km/s)
/
Latitude / Longitude
Inclination (degrees)
Orbital Period (minutes)
Azimuth
Elevation
Range (km)
Doppler Factor

Next 0 passes for location: London (51.5072 / 0.1276)

Sorry there are no passes over London.